Cleveland, OH

1:56 AM EDT on March 26, 2017 (GMT -0400)
Cleveland-Hopkins International

Weather History for KCLE - July, 2013

Change the Weather History Date:

Saturday, July 20, 2013

  Actual Average Record
Temperature  
Mean Temperature 76 °F 74 °F  
Max Temperature 82 °F 83 °F 98 °F (1930)
Min Temperature 69 °F 65 °F 46 °F (1965)
Degree Days  
Heating Degree Days 0 0  
Month to date heating degree days 0 0  
Since 1 June heating degree days 39 42  
Since 1 July heating degree days 0 0  
Cooling Degree Days 11 9  
Month to date cooling degree days 242 175  
Year to date cooling degree days 520 402  
Since 1 June cooling degree days 406 343  
Growing Degree Days 26 (Base 50)    
Moisture  
Dew Point 68 °F    
Average Humidity 80    
Maximum Humidity 90    
Minimum Humidity 69    
Precipitation  
Precipitation 0.71 in 0.11 in 1.71 in (1973)
Month to date precipitation 3.63 2.17  
Year to date precipitation 24.12 20.74  
Snow  
Snow 0.00 in 0.00 in - ()
Month to date snowfall 0.0 0.0  
Since 1 June snowfall 0.0 0.0  
Since 1 July snowfall 0.0 0.0  
Snow Depth 0.00 in    
Sea Level Pressure  
Sea Level Pressure 29.87 in    
Wind  
Wind Speed 9 mph (WSW)    
Max Wind Speed 23 mph    
Max Gust Speed 31 mph    
Visibility 8 miles    
Events Rain , Thunderstorm    
T = Trace of Precipitation, MM = Missing Value Source: NWS Daily Summary

Daily Weather History Graph

Daily Weather History Graph

Search for Another Location

Airport or City:

Trip Planner

Search our weather history database for the weather conditions in past years. The results will help you decide how hot, cold, wet, or windy it might be!

Date:

Astronomy

Jul. 20, 2013 Rise Set
Actual Time 6:11 AM EDT 8:55 PM EDT
Civil Twilight 5:38 AM EDT 9:27 PM EDT
Nautical Twilight 4:58 AM EDT 10:08 PM EDT
Astronomical Twilight 4:11 AM EDT 10:54 PM EDT
Moon 6:57 PM EDT (7/20) 3:49 AM EDT (7/20)
Length of Visible Light 15h 49m
Length of Day
14h 44m
Waxing Gibbous, 93% of the Moon is Illuminated
Jul 20
Waxing Gibbous
Jul 22
Full
Jul 29
Last Quarter
Aug 6
New
Aug 14
First Quarter

Hourly Weather History & Observations

Time (EDT) Temp. Heat Index Dew Point Humidity Pressure Visibility Wind Dir Wind Speed Gust Speed Precip Events Conditions
12:18 AM 75.9 °F - 66.0 °F 71% 29.89 in 10.0 mi NE 12.7 mph - N/A   Overcast
12:51 AM 75.9 °F - 66.0 °F 71% 29.86 in 10.0 mi ENE 18.4 mph - N/A   Overcast
1:36 AM 75.0 °F - 66.0 °F 73% 29.85 in 10.0 mi SE 9.2 mph - N/A   Mostly Cloudy
1:51 AM 75.0 °F - 66.0 °F 73% 29.81 in 10.0 mi SSE 8.1 mph - N/A   Mostly Cloudy
2:51 AM 78.1 °F - 70.0 °F 76% 29.78 in 9.0 mi SSW 13.8 mph 20.7 mph N/A   Scattered Clouds
3:51 AM 73.0 °F - 66.0 °F 79% 29.85 in 10.0 mi North 17.3 mph 24.2 mph N/A   Mostly Cloudy
4:22 AM 72.0 °F - 66.9 °F 84% 29.87 in 2.0 mi WNW 6.9 mph - 0.06 in Rain , Thunderstorm Heavy Thunderstorms and Rain
4:35 AM 71.1 °F - 66.9 °F 87% 29.88 in 8.0 mi Variable 4.6 mph - 0.12 in Rain , Thunderstorm Light Thunderstorms and Rain
4:43 AM 71.1 °F - 66.9 °F 87% 29.89 in 6.0 mi NW 11.5 mph 18.4 mph 0.14 in Rain Light Rain
4:51 AM 72.0 °F - 66.9 °F 84% 29.90 in 7.0 mi West 20.7 mph 31.1 mph 0.15 in Rain Light Rain
4:59 AM 71.1 °F - 66.9 °F 87% 29.90 in 1.8 mi West 15.0 mph 31.1 mph 0.13 in Rain Heavy Rain
5:12 AM 70.0 °F - 66.9 °F 90% 29.85 in 6.0 mi South 5.8 mph - 0.24 in Rain Light Rain
5:20 AM 70.0 °F - 66.0 °F 87% 29.86 in 10.0 mi SSW 9.2 mph - 0.24 in Rain Light Rain
5:51 AM 70.0 °F - 66.0 °F 87% 29.83 in 10.0 mi South 9.2 mph - 0.24 in Rain Light Rain
6:45 AM 69.8 °F - 66.2 °F 88% 29.88 in 10.0 mi SSW 13.8 mph - 0.01 in Rain , Thunderstorm Light Thunderstorms and Rain
6:51 AM 69.1 °F - 66.0 °F 90% 29.86 in 10.0 mi SW 10.4 mph - 0.02 in Rain , Thunderstorm Light Thunderstorms and Rain
7:51 AM 69.1 °F - 66.0 °F 90% 29.88 in 6.0 mi WSW 9.2 mph - 0.10 in Rain , Thunderstorm Thunderstorms and Rain
8:23 AM 69.1 °F - 66.0 °F 90% 29.85 in 7.0 mi South 17.3 mph - 0.09 in Rain , Thunderstorm Light Thunderstorms and Rain
8:39 AM 69.1 °F - 66.0 °F 90% 29.88 in 9.0 mi SSW 3.5 mph - 0.12 in Rain Light Rain
8:51 AM 69.1 °F - 66.0 °F 90% 29.88 in 7.0 mi WSW 11.5 mph - 0.14 in Rain Light Rain
9:37 AM 69.1 °F - 66.0 °F 90% 29.89 in 10.0 mi SSW 11.5 mph - 0.06 in Rain Light Rain
9:51 AM 69.1 °F - 66.0 °F 90% 29.87 in 10.0 mi SSW 12.7 mph - 0.06 in   Overcast
10:51 AM 71.1 °F - 66.9 °F 87% 29.86 in 10.0 mi WSW 5.8 mph - N/A   Overcast
11:51 AM 72.0 °F - 68.0 °F 87% 29.86 in 10.0 mi SW 6.9 mph - N/A   Overcast
12:51 PM 77.0 °F - 69.1 °F 76% 29.86 in 10.0 mi WSW 16.1 mph - N/A   Overcast
1:28 PM 77.0 °F - 68.0 °F 74% 29.89 in 10.0 mi WSW 13.8 mph - N/A   Overcast
1:51 PM 77.0 °F - 68.0 °F 74% 29.88 in 10.0 mi WSW 13.8 mph - N/A   Overcast
2:10 PM 78.1 °F - 68.0 °F 71% 29.89 in 10.0 mi West 11.5 mph - N/A   Overcast
2:51 PM 78.1 °F - 69.1 °F 74% 29.86 in 10.0 mi West 8.1 mph - N/A   Overcast
3:51 PM 79.0 °F - 70.0 °F 74% 29.86 in 10.0 mi West 5.8 mph - N/A   Overcast
4:43 PM 82.0 °F 86.3 °F 71.1 °F 69% 29.88 in 10.0 mi SW 5.8 mph - N/A   Mostly Cloudy
4:51 PM 80.1 °F 83.2 °F 70.0 °F 71% 29.87 in 10.0 mi SW 6.9 mph - N/A   Overcast
5:21 PM 81.0 °F 84.4 °F 70.0 °F 69% 29.88 in 10.0 mi WSW 4.6 mph - N/A   Mostly Cloudy
5:29 PM 81.0 °F 84.9 °F 71.1 °F 72% 29.88 in 10.0 mi West 6.9 mph - N/A   Mostly Cloudy
5:51 PM 80.1 °F 83.6 °F 71.1 °F 74% 29.87 in 10.0 mi North 6.9 mph - N/A   Overcast
6:38 PM 80.1 °F 83.6 °F 71.1 °F 74% 29.87 in 8.0 mi North 8.1 mph - N/A   Mostly Cloudy
6:51 PM 79.0 °F - 70.0 °F 74% 29.86 in 5.0 mi North 9.2 mph - N/A   Haze
7:51 PM 78.1 °F - 69.1 °F 74% 29.87 in 5.0 mi North 5.8 mph - N/A   Haze
8:51 PM 77.0 °F - 70.0 °F 79% 29.88 in 6.0 mi Calm Calm - N/A   Haze
9:51 PM 75.9 °F - 69.1 °F 79% 29.90 in 8.0 mi Calm Calm - 0.00 in   Mostly Cloudy
10:51 PM 75.0 °F - 70.0 °F 84% 29.92 in 6.0 mi SSE 3.5 mph - N/A   Haze
11:51 PM 73.9 °F - 69.1 °F 85% 29.93 in 10.0 mi SSW 4.6 mph - N/A   Overcast